Weather History for Hazlehurst, GA

Change the Weather History Date:

Sunday, January 6, 2013

  Actual Average Record
Temperature  
Mean Temperature 48 °F -  
Max Temperature 53 °F 56 °F 63 °F (2014)
Min Temperature 44 °F 30 °F 25 °F (2014)
Degree Days  
Heating Degree Days 16    
Moisture  
Dew Point 43 °F    
Average Humidity 83    
Maximum Humidity 100    
Minimum Humidity 59    
Precipitation  
Precipitation 0.00 in - - ()
Sea Level Pressure  
Sea Level Pressure 30.21 in    
Wind  
Wind Speed 1 mph (North)    
Max Wind Speed 7 mph    
Max Gust Speed -    
Visibility 10 miles    
Events Rain    
Averages and records for this station are not official NWS values.
T = Trace of Precipitation, MM = Missing Value Source: NWS Daily Summary

Daily Weather History Graph

Daily Weather History Graph

Search for Another Location

Airport:

Trip Planner

Search our weather history database for the weather conditions in past years. The results will help you decide how hot, cold, wet, or windy it might be!

Date:

Astronomy

Jan. 06, 2013 Rise Set
Actual Time 7:31 AM EST 5:41 PM EST
Civil Twilight 7:04 AM EST 6:08 PM EST
Nautical Twilight 6:34 AM EST 6:38 PM EST
Astronomical Twilight 6:05 AM EST 7:08 PM EST
Moon 1:52 AM EST (1/6) 1:01 PM EST (1/6)
Length of Visible Light 11h 03m
Length of Day
10h 10m
Waning Crescent, 33% of the Moon is Illuminated
Jan 6
Waning Crescent
Jan 11
New
Jan 18
First Quarter
Jan 26
Full
Feb 3
Last Quarter

Hourly Weather History & Observations

Time (EST) Temp. Windchill Dew Point Humidity Pressure Visibility Wind Dir Wind Speed Gust Speed Precip Events Conditions
12:15 AM 45.7 °F - 44.8 °F 97% 30.29 in 10.0 mi Calm Calm - N/A Rain Light Rain
12:35 AM 45.7 °F - 44.4 °F 95% 30.28 in 10.0 mi Calm Calm - N/A Rain Light Rain
12:55 AM 45.3 °F - 45.0 °F 99% 30.26 in 10.0 mi Calm Calm - N/A Rain Rain
1:15 AM 45.1 °F - 45.1 °F 100% 30.25 in 10.0 mi Calm Calm - N/A Rain Light Rain
1:35 AM 45.0 °F - 45.0 °F 100% 30.26 in 10.0 mi Calm Calm - N/A   Drizzle
1:55 AM 45.0 °F - 45.0 °F 100% 30.24 in 10.0 mi Calm Calm - N/A Rain Light Rain
2:15 AM 44.6 °F 42.2 °F 44.4 °F 99% 30.23 in 10.0 mi ESE 4.6 mph - N/A Rain Rain
2:35 AM 44.6 °F - 42.8 °F 93% 30.23 in 10.0 mi Calm Calm - N/A Rain Light Rain
2:55 AM 44.4 °F - 43.7 °F 97% 30.22 in 10.0 mi Calm Calm - N/A   Overcast
3:15 AM 44.4 °F 41.2 °F 44.4 °F 100% 30.20 in 10.0 mi SE 5.8 mph - N/A   Overcast
3:35 AM 45.9 °F 43.6 °F 41.9 °F 86% 30.19 in 10.0 mi SE 4.6 mph - N/A   Overcast
3:55 AM 46.4 °F 45.2 °F 41.9 °F 84% 30.19 in 10.0 mi SSE 3.5 mph - N/A   Overcast
4:15 AM 46.4 °F 43.5 °F 42.8 °F 87% 30.22 in 10.0 mi NNW 5.8 mph - N/A   Mostly Cloudy
4:35 AM 45.3 °F - 43.7 °F 94% 30.21 in 10.0 mi Calm Calm - N/A   Overcast
4:55 AM 45.5 °F - 44.1 °F 95% 30.21 in 10.0 mi Calm Calm - N/A   Overcast
5:15 AM 45.3 °F 41.6 °F 44.1 °F 95% 30.21 in 10.0 mi NNW 6.9 mph - N/A   Overcast
5:35 AM 45.5 °F - 43.5 °F 93% 30.20 in 10.0 mi Calm Calm - N/A   Overcast
5:55 AM 45.3 °F - 43.5 °F 93% 30.20 in 10.0 mi Calm Calm - N/A   Overcast
6:15 AM 45.1 °F - 43.7 °F 95% 30.22 in 10.0 mi Calm Calm - N/A   Mostly Cloudy
6:35 AM 45.5 °F - 43.9 °F 94% 30.21 in 10.0 mi Calm Calm - N/A   Overcast
6:55 AM 45.5 °F - 44.2 °F 95% 30.23 in 10.0 mi Calm Calm - N/A   Overcast
7:15 AM 45.1 °F - 44.4 °F 97% 30.23 in 10.0 mi Calm Calm - N/A   Overcast
7:35 AM 45.3 °F - 44.4 °F 97% 30.24 in 10.0 mi Calm Calm - N/A   Overcast
7:55 AM 45.7 °F - 44.4 °F 95% 30.24 in 10.0 mi Calm Calm - N/A   Overcast
8:15 AM 45.7 °F - 44.6 °F 96% 30.24 in 10.0 mi Calm Calm - N/A   Overcast
8:35 AM 46.4 °F - 44.2 °F 92% 30.24 in 10.0 mi Calm Calm - N/A   Mostly Cloudy
8:55 AM 47.3 °F - 42.8 °F 84% 30.24 in 10.0 mi Calm Calm - N/A   Overcast
9:15 AM 47.7 °F - 41.7 °F 80% 30.24 in 10.0 mi North 3.5 mph - N/A   Overcast
9:35 AM 48.2 °F - 41.7 °F 78% 30.26 in 10.0 mi NNW 4.6 mph - N/A   Overcast
9:55 AM 48.0 °F - 42.1 °F 80% 30.26 in 10.0 mi NNW 4.6 mph - N/A   Overcast
10:15 AM 47.8 °F - 42.6 °F 82% 30.25 in 10.0 mi North 4.6 mph - N/A   Overcast
10:35 AM 47.7 °F - 42.3 °F 82% 30.24 in 10.0 mi North 5.8 mph - N/A Rain Light Rain
10:55 AM 47.5 °F - 42.1 °F 82% 30.24 in 10.0 mi North 4.6 mph - N/A   Overcast
11:15 AM 47.7 °F - 41.7 °F 80% 30.24 in 10.0 mi North 5.8 mph - N/A   Overcast
11:35 AM 48.2 °F - 41.5 °F 78% 30.23 in 10.0 mi North 3.5 mph - N/A   Overcast
11:55 AM 49.5 °F - 41.5 °F 74% 30.22 in 10.0 mi North 3.5 mph - N/A   Overcast
12:15 PM 50.5 °F - 40.6 °F 69% 30.20 in 10.0 mi NNW 3.5 mph - N/A   Overcast
12:35 PM 51.4 °F - 40.5 °F 66% 30.19 in 10.0 mi Calm Calm - N/A   Overcast
12:55 PM 51.8 °F - 40.1 °F 64% 30.18 in 10.0 mi Calm Calm - N/A   Overcast
1:15 PM 52.3 °F - 39.9 °F 63% 30.17 in 10.0 mi Calm Calm - N/A   Overcast
1:35 PM 52.5 °F - 39.9 °F 62% 30.18 in 10.0 mi Calm Calm - N/A   Overcast
1:55 PM 52.9 °F - 39.9 °F 61% 30.17 in 10.0 mi NNW 3.5 mph - N/A   Overcast
2:15 PM 53.2 °F - 39.6 °F 60% 30.16 in 10.0 mi NNW 4.6 mph - N/A   Overcast
2:35 PM 53.6 °F - 39.6 °F 59% 30.16 in 10.0 mi Calm Calm - N/A   Overcast
2:55 PM 53.4 °F - 39.9 °F 60% 30.16 in 10.0 mi Calm Calm - N/A   Overcast
3:15 PM 53.6 °F - 40.5 °F 61% 30.15 in 10.0 mi Calm Calm - N/A   Overcast
3:35 PM 53.6 °F - 40.8 °F 62% 30.15 in 10.0 mi Calm Calm - N/A   Mostly Cloudy
4:15 PM 53.2 °F - 40.6 °F 62% 30.15 in 10.0 mi Calm Calm - N/A   Overcast
4:35 PM 52.9 °F - 41.4 °F 65% 30.16 in 10.0 mi Calm Calm - N/A   Mostly Cloudy
4:55 PM 52.5 °F - 42.6 °F 69% 30.14 in 10.0 mi Calm Calm - N/A   Overcast
5:15 PM 52.2 °F - 42.8 °F 70% 30.15 in 10.0 mi Calm Calm - N/A   Overcast
5:35 PM 51.6 °F - 43.7 °F 74% 30.16 in 10.0 mi Calm Calm - N/A   Overcast
5:55 PM 51.1 °F - 44.1 °F 77% 30.15 in 10.0 mi Calm Calm - N/A   Overcast
6:15 PM 50.5 °F - 45.1 °F 82% 30.16 in 10.0 mi Calm Calm - N/A   Overcast
6:35 PM 50.5 °F - 44.4 °F 80% 30.17 in 10.0 mi Calm Calm - N/A   Overcast
6:55 PM 50.2 °F - 44.6 °F 81% 30.17 in 10.0 mi Calm Calm - N/A   Overcast
7:15 PM 50.0 °F - 43.9 °F 79% 30.17 in 10.0 mi Calm Calm - N/A   Overcast
7:35 PM 49.5 °F - 44.2 °F 82% 30.17 in 10.0 mi Calm Calm - N/A   Mostly Cloudy
7:55 PM 49.5 °F - 43.9 °F 81% 30.18 in 10.0 mi Calm Calm - N/A   Mostly Cloudy
8:15 PM 49.3 °F - 43.9 °F 82% 30.19 in 10.0 mi Calm Calm - N/A   Overcast
8:35 PM 49.1 °F - 43.9 °F 82% 30.19 in 10.0 mi Calm Calm - N/A   Overcast
8:55 PM 48.4 °F - 44.1 °F 85% 30.20 in 10.0 mi Calm Calm - N/A   Mostly Cloudy
9:15 PM 48.0 °F - 44.1 °F 86% 30.20 in 10.0 mi Calm Calm - N/A   Scattered Clouds
9:35 PM 47.3 °F - 43.7 °F 87% 30.21 in 10.0 mi Calm Calm - N/A   Clear
9:55 PM 46.4 °F - 43.7 °F 90% 30.21 in 10.0 mi Calm Calm - N/A   Clear
10:15 PM 46.6 °F - 43.9 °F 90% 30.22 in 10.0 mi Calm Calm - N/A   Clear
10:35 PM 46.0 °F - 43.9 °F 92% 30.22 in 10.0 mi Calm Calm - N/A   Clear
10:55 PM 45.1 °F 43.7 °F 43.9 °F 95% 30.22 in 10.0 mi WNW 3.5 mph - N/A   Clear
11:15 PM 44.8 °F - 43.9 °F 97% 30.23 in 10.0 mi Calm Calm - N/A   Clear
11:55 PM 45.9 °F 42.9 °F 43.7 °F 92% 30.24 in 10.0 mi NNW 5.8 mph - N/A   Clear